Regional Weather Roundup
Issued by NWS Goodland, KS

Home | Current Version | Previous Version | Graphics & Text | Print | Product List | Glossary On
Versions: 1 2 3 4 5 6 7 8 9 10 11 12 13 14 15 16 17 18 19 20 21 22 23 24 25 26 27 28 29 30 31 32 33 34 35 36 37 38 39 40 41 42 43 44 45 46 47 48 49 50
000
ASUS43 KGLD 061208
RWRGLD

GOODLAND FORECAST AREA HOURLY WEATHER ROUNDUP
NATIONAL WEATHER SERVICE GOODLAND KS
600 AM MDT WED MAY 06 2015

...OFFICIAL OBSERVATIONS...

CITY           SKY/WX    TMP DP  RH WIND       PRES   REMARKS
GOODLAND KS    CLOUDY    51  50  96 S13       29.71F
HILL CITY KS   MOCLDY    61  58  90 S12       29.73S
IMPERIAL NEB   CLOUDY    53  50  89 SE10      29.70S
MCCOOK NEB     CLOUDY    60  58  92 S8        29.71F
AKRON CO       CLOUDY    51  50  96 S14       29.65F
BURLINGTON CO  CLOUDY    50  49  96 S10       29.71S
LIMON CO       LGT RAIN  48  46  93 CALM      29.72S
$$

...UNOFFICIAL OBSERVATIONS...

CITY           SKY/WX    TMP DP  RH WIND       PRES   REMARKS
GOVE KS          N/A     56  32  40 MISG        N/A
LENORA KS        N/A     59  32  36 MISG        N/A
SHARON SPRINGS   N/A     50  49  97 MISG        N/A
KIT CARSON CO    N/A     50  48  92 MISG        N/A
YUMA CO          N/A     53  53 100 SE10        N/A
$$


USA.gov is the U.S. government's official web portal to all federal, state and local government web resources and services.